Location: Pordenone
(45.9640°N, 12.6580°E)
Time: 03:10:08
(UTC+02:00)

ISS - Pass Details

Date: 23 May 2021
Orbit: 417 x 422 km, 51.6° (Epoch: 14 June)

Event Time Altitude Azimuth Distance (km) Brightness Sun altitude
Rises 23:47:01 0° 297° (WNW) 2,369 0.8 -20.9°
Reaches altitude 10° 23:49:08 10° 301° (WNW) 1,504 -0.3 -21.0°
Enters shadow 23:52:29 64° 23° (NNE) 469 -3.5 -21.2°
